Location: East Poestenkill
(42.6826°N, 73.4946°W)
Time: 11:54:43
(UTC+00:00)

Daily predictions for brighter satellites

Satellite Brightness Start Highest point End
(mag) Time Altitude Azimuth Time Altitude Azimuth Time Altitude Azimuth
CENTAUR R/B 4.1 21:44:39 10° W 21:49:35 26° NNW 21:55:29 10° NNE
Cosmos 2263 Rocket 3.4 21:45:46 10° N 21:49:54 20° NE 21:54:03 10° E
SL-16 R/B 2.7 21:44:28 10° NNE 21:50:44 87° WNW 21:56:54 10° SSW
NOSS 2-3 (C) 4.4 21:52:05 10° S 21:54:57 23° ESE 21:57:48 10° ENE
EXPRESS MD2 4.3 21:53:36 10° S 21:55:15 17° SE 21:57:15 10° E
Cosmos 2151 3.0 21:52:48 10° N 21:56:53 54° E 22:00:57 10° SSE
SAR-Lupe-4 4.4 21:56:16 10° SE 21:59:21 29° ENE 22:02:29 10° N
IGS 5A 3.3 21:55:26 10° SSE 21:59:22 86° ENE 22:03:22 10° N
IRS-1C 4.4 21:56:41 10° SE 22:01:42 44° ENE 22:06:44 10° N
Cosmos 1486 Rocket 4.4 21:57:12 10° SSW 22:02:22 66° WNW 22:07:36 10° NNE
Cosmos 1782 3.5 22:00:22 10° SSW 22:03:52 51° W 22:07:23 10° N
IRIDIUM 103 4.4 22:00:11 10° N 22:05:22 61° E 22:10:30 10° SSE
Cosmos 773 Rocket 4.4 22:00:25 10° NNW 22:05:38 69° WSW 22:10:50 10° S
Cosmos 2227 Rocket 2.5 22:01:48 10° NNW 22:07:10 42° ENE 22:12:29 10° SE
USA 238 DEB 4.0 22:04:51 10° S 22:10:20 38° ESE 22:16:08 10° NE
USA 238 4.1 22:04:58 10° S 22:10:27 38° ESE 22:16:14 11° NE
Cosmos 990 Rocket 4.0 22:07:48 10° S 22:12:48 59° ESE 22:17:52 10° NNE
MOS 1 Rocket 3.8 22:08:20 10° SE 22:12:54 41° ENE 22:17:45 10° N
Cosmos 2084 Rocket 3.3 22:09:40 10° NNW 22:13:54 69° NE 22:18:03 10° SE
Aureole 1 Rocket 4.2 22:13:02 10° SSE 22:16:40 27° E 22:20:55 10° NE
Cosmos 1697 Rocket 2.7 22:12:11 10° SSW 22:17:46 79° ESE 22:23:24 10° NNE
Cosmos 1867 3.6 22:12:54 10° NNW 22:18:21 64° NE 22:23:43 10° SE
Cosmos 1825 Rocket 3.7 22:14:26 10° N 22:18:37 47° ENE 22:22:46 10° SSE
Cosmos 2098 Rocket 4.1 22:16:43 10° SSW 22:20:41 49° WNW 22:25:23 10° N
NOSS 2-3 (E) 3.1 22:17:23 10° SSW 22:21:03 65° ESE 22:24:06 14° NE
Cosmos 1900 4.3 22:16:20 10° NNW 22:21:23 73° ENE 22:26:18 10° SE
NOSS 2-3 (D) 3.2 22:17:53 10° SSW 22:21:35 60° ESE 22:24:33 15° NE
IRIDIUM 106 4.3 22:18:27 10° N 22:23:42 89° E 22:28:55 10° S
ARIANE 5 R/B 2.4 22:18:48 10° SSE 22:23:49 70° ENE 22:28:56 10° N
Cosmos 1655 Rocket 4.1 22:23:34 10° N 22:29:38 50° ENE 22:35:37 10° SSE
UNK 4.1 22:26:07 10° N 22:30:40 67° WNW 22:35:10 10° SSW
SJ-6F 4.4 22:31:35 10° SSE 22:35:28 57° ENE 22:39:25 10° N
Cosmos 1076 Rocket 3.7 22:31:25 10° N 22:35:34 45° ENE 22:39:43 10° SSE
ATLAS CENTAUR R/B 4.0 22:34:39 10° WNW 22:36:48 17° WSW 22:38:55 10° SSW
SMAP 3.5 22:32:53 10° S 22:37:30 65° WSW 22:42:08 10° NNW
SAR-Lupe-3 3.9 22:36:47 33° NE 22:37:31 45° ESE 22:39:55 10° S
COSMOS 2455 4.2 22:34:41 10° SE 22:38:25 17° ESE 22:39:11 17° E
Cosmos 2058 Rocket 3.7 22:35:19 10° SSE 22:39:22 35° E 22:42:19 16° NNE
COSMO-SKYMED 1 3.4 22:38:13 22° ENE 22:39:38 27° E 22:43:09 10° SSE
SPOT 1/Viking Rocket 3.7 22:36:37 10° SE 22:41:35 49° ENE 22:46:35 10° N
Landsat 7 4.0 22:37:35 10° S 22:42:13 75° W 22:46:53 10° NNW
Gbstr 26 Del rocket 3.3 22:39:40 10° WSW 22:43:40 48° NNW 22:45:42 23° NE
Cosmos 1606 Rocket 4.1 22:45:36 10° SSW 22:49:56 61° W 22:54:21 10° N
IRS-P3 4.0 22:45:46 10° SSE 22:51:05 85° ENE 22:56:26 10° NNW
Cosmos 2082 4.3 22:49:23 10° N 22:54:30 33° NE 22:56:34 26° E
CZ-2D R/B 4.0 22:54:11 10° S 22:57:10 42° W 23:00:11 10° NNW
Cosmos 2297 Rocket 4.1 22:54:34 10° NW 22:59:34 33° WSW 23:04:32 10° SSW
NOSS 3-2 (C) 4.5 22:56:00 10° WSW 23:00:37 33° NW 23:05:30 12° NNE
Resurs 1-3 3.7 22:58:00 10° SE 23:02:07 47° ENE 23:06:15 10° N
Cosmos 1538 Rocket 3.9 22:57:00 10° NNW 23:02:17 64° ENE 23:07:34 10° SSE
SL-16 R/B 4.0 23:00:26 10° SE 23:01:52 14° SE 23:01:52 14° SE
CZ-4C R/B 3.6 22:57:09 10° NW 23:04:26 63° WSW 23:13:12 10° SSE
Meteor 1-26 Rocket 4.1 23:03:30 10° S 23:08:49 62° E 23:12:48 18° NNE
Okean 1 3.2 23:10:08 10° S 23:13:12 54° SE 23:13:12 54° SE
Nadezhda 2 Rocket 4.4 23:12:03 10° N 23:18:05 58° E 23:24:05 10° SSE
Cosmos 2219 3.2 23:14:43 10° NNW 23:20:26 62° ENE 23:24:18 21° SE
Cosmos 1980 Rocket 2.4 23:15:42 10° SSW 23:21:20 72° WNW 23:25:04 22° NNE
Cosmos 1553 Rocket 3.9 23:16:56 10° S 23:23:00 67° E 23:29:05 11° NNE
Spot 4 Rocket 3.9 23:18:28 10° SSE 23:23:33 84° ENE 23:28:41 10° NNW
Cosmos-2242 2.9 23:19:41 10° S 23:23:55 82° W 23:25:43 34° N
YAOGAN 1 2.4 23:20:57 10° SSE 23:25:11 88° ENE 23:29:29 10° NNW
Cosmos 1844 Rocket 4.4 23:22:08 10° N 23:23:59 17° NNE 23:23:59 17° NNE
Cosmos 1898 Rocket 3.4 23:23:32 10° SSW 23:28:41 85° WNW 23:30:53 36° NNE
SKYMED 2 4.3 23:27:41 16° N 23:30:59 51° WNW 23:35:11 10° SSW
OceanSat 1 rocket 4.4 23:26:19 10° SSE 23:31:03 74° ENE 23:35:45 10° N
Cosmos 2263 Rocket 2.4 23:28:43 10° NNW 23:34:23 71° WSW 23:40:02 10° SSE
SL-24 R/B - RUBIN 2 4.1 23:29:17 10° SSW 23:34:30 54° SE 23:34:30 54° SE
Cosmos 2369 3.6 23:29:03 10° SSW 23:34:46 83° ESE 23:36:34 46° NNE
Helios 1A Rocket 4.5 23:46:13 23° SSW 23:46:13 23° SSW 23:47:39 10° SSW
Cosmos 1937 Rocket 3.4 23:41:56 10° SSW 23:47:07 80° WNW 23:47:52 65° N
Meteor 1-17 Rocket 4.5 23:41:56 10° N 23:47:30 79° E 23:53:00 10° SSE
Cosmos 2227 Rocket 4.1 23:46:12 10° NW 23:50:58 29° WSW 23:55:45 10° SSW
